Showing default

KINEIS-3A, 61223

Orbit data source: Space-Track

KINEIS-3A, 61223 is a French payload satellite in SSO that was launched on Fri, 20 Sep 2024 UTC via an ELECTRON launch vehicle from the Rocket Lab Launch Complex (RLLC). Payload-class satellites include a variety of spacecraft equipped with specific instruments for various scientific and technological missions. These include communications satellites like Starlink; space stations such as the ISS; scientific satellites like the Hubble; Earth observation satellites from companies like Planet Labs, Umbra, and HawkEye 360; GPS; miniature CubeSats for education and research; and military/defense satellites.

Loading next visibility...
Identifier
61223, 2024-172D
Orbit
SSO
Country
Flag of FRFR
Related business
Manufacturer
KINEIS
Mission
Operational Commercial Communications
Bus & Motor
CUBESAT 16U, Unknown motor
Mass
28 kg wet, 28 kg dry
Launch date (UTC)
2024-09-20 (2 years ago)
Launch vehicle
ELECTRON
Launch site
Rocket Lab Launch Complex (RLLC)
Object type
Payload
Rocket body
Debris
Shape & HBR
Box + 2 Pan + 1 Ant, 1.0 m
Radar Cross Section
0.229 m², Medium (>0.1 m² and < 1m²)

Expand to show TLE details & history
Last TLE update: 15 hours ago

TLE from 15 hours ago
0 KINEIS-3A
1 61223U 24172D   26171.22660288  .00001389  00000-0  22751-3 0  9992
2 61223  98.0426 261.1852 0003292  90.4883 269.6701 14.72324656 93225
Epoch: 2026-06-20T05:26Z
TLE epoch observation values (Epoch: 2026-06-20T05:26:18.488Z)
Latitude
-0.0001°
Longitude
-88.83608°
Altitude
656.677 km
Speed
7.529 km/s
True Right ascension
17h 24m 44s
True Declination
0° 00' 00"
Sunlit
Object was in full shadow at epoch
Visualization orbit readout
Latitude
Unknown
Longitude
Unknown
Altitude
Unknown
Speed
Unknown
Apparent Right ascension
Unknown
Apparent Declination
Unknown
Sunlit
N/A
Visualization observer readout
Local Sidereal Time
07:16:47
Azimuth
Unknown
Elevation
Unknown
Doppler factor
Unknown
Orbital elements
Apogee altitude
653.028 km
Perigee altitude
648.4 km
Semi-major axis
7,028.851 km
Eccentricity
0.00033
Inclination
98.0426°
RAAN
261.1852°
Arg. of periapsis
90.4883°
True anomaly
269.63238°
Mean anomaly
269.6701°
Eccentric anomaly
269.65124°
Mean motion
3.68313 °/min
Orbital period
97.74 mins
BSTAR
0.00022751
Loading maneuver chart data...
Computing Atmospheric mass density...
Loading historical data...
Loading historical data...
Loading historical data...
Loading historical data...
Loading historical data...
Loading historical data...
Loading historical data...

Documentation

Showing up to 5 results
|